Location: アルンシュタイン
(50.0000°N, 10.0000°E)
Time: 16:33:31
(UTC+02:00)

Vanguard 1 - Pass Details

Date: 14 September 2024
Orbit: 649 x 3825 km, 34.3° (Epoch: 02 October)

Event Time Altitude Azimuth Distance (km) Brightness Sun altitude
Rises 12:38:21 0° 208° (SSW) 6,397 14.7 42.5°
Reaches altitude 10° 12:45:37 10° 189° (S) 4,621 14.5 42.7°
Maximum altitude 12:51:12 15° 161° (SSE) 3,609 14.2 42.8°
Drops below altitude 10° 12:55:35 10° 131° (SE) 3,444 13.5 42.9°
Sets 12:59:34 0° 108° (ESE) 3,941 13.4 43.0°
